Location: Schommer Observatory
(40.5200°N, 74.4500°W)
Time: 18:58:42
(UTC-04:00)

ISS - Visible Passes

Search period start: 23 August 2019 00:00
Search period end: 02 September 2019 00:00
Orbit: 410 x 421 km, 51.6° (Epoch: 24 August)

Date Brightness Start Highest point End Pass type
(mag) Time Alt. Az. Time Alt. Az. Time Alt. Az.
26 Aug -2.9 05:48:32 10° SSW 05:51:44 45° SE 05:54:57 10° ENE visible
27 Aug -2.0 05:00:56 14° S 05:03:02 25° SE 05:05:51 10° ENE visible
28 Aug -1.3 04:14:22 14° SE 04:14:23 14° SE 04:16:17 10° E visible
28 Aug -3.6 05:47:27 10° WSW 05:50:44 62° NW 05:54:04 10° NE visible
29 Aug -3.7 05:00:35 33° SW 05:01:55 75° SE 05:05:15 10° ENE visible
30 Aug -2.4 04:13:51 34° ESE 04:13:51 34° ESE 04:16:17 10° ENE visible
30 Aug -2.4 05:46:58 10° W 05:49:54 28° NNW 05:52:52 10° NE visible
31 Aug -0.4 03:27:02 10° E 03:27:02 10° E 03:27:04 10° E visible
31 Aug -3.0 04:59:55 31° WNW 05:00:56 41° NNW 05:04:09 10° NE visible
01 Sep -2.5 04:13:02 40° NE 04:13:02 40° NE 04:15:21 10° NE visible
01 Sep -1.5 05:46:55 10° WNW 05:49:13 17° NNW 05:51:32 10° NNE visible
